Погода в Догондучи

Нигер     13°38′09″N   4°01′51″E
темп.,
°C
ветер,
м/с
пор.,
м/с
влажн.,
%
обл.,
%
осадки,
мм/ч
давл.,
гПа
погр.,
м
9 августа, вт
вт901:00+27ююз367478 0.4 1011548
04:00+26ю4580100 0.0 1009267
07:00+26ююв2277100 0.0 1011194
10:00+27ююв2367100 0.0 1013303
13:00+31ю4450100 0.0 1011963
16:00+31ю434964 0.0 10091129
19:00+31ю23515 0.0 1009827
22:00+29юз336016 0.0 1011256
10 августа, ср
ср1001:00+29ююз3564100 0.1 1011318
04:00+27ююз4768100 0.1 1010367
07:00+27ююз57755 0.1 1011406
10:00+30юз66595 0.0 1012911
13:00+33ююз544612 0.0 10101586
16:00+35ююз433962 0.0 10082281
19:00+34ююз323999 0.0 10081635
22:00+32юз674759 0.0 1010712
11 августа, чт
чт1101:00+30юз68595 0.0 1010560
04:00+28зюз61070100 0.0 1010500
07:00+27зюз5970100 0.0 1011456
10:00+30зюз7856100 0.0 1012805
13:00+34з6643100 0.0 10101551
16:00+36зсз453828 0.0 10072170
19:00+35з453874 0.0 10071140
22:00+33юз7947100 0.1 1008558
12 августа, пт
пт1201:00+25вюв151783100 10.8 10111144
04:00+23юз101282100 44.6 1010428
07:00+23юз4581100 46.0 1011244
10:00+25зсз6772100 0.6 1012533
13:00+29юз345561 0.6 1012890
16:00+31юз444993 0.0 10101293
19:00+30зюз4452100 0.0 10101082
22:00+27зюз566771 0.0 1011346
13 августа, сб
сб1301:00+26юз5672100 0.0 1012308
04:00+25юз47755 0.0 1011320
07:00+24юз477713 0.0 1012326
10:00+28зюз676287 0.2 1014723
13:00+32зюз55467 0.2 10121316
16:00+33зюз44425 0.0 10091691
19:00+32зюз44455 0.0 10091133
22:00+31юз47545 0.0 1011411